Terminal Aerodrome Forecast
Issued by NWS

Home | Current Version | Previous Version | Text Only | Print | Product List | Glossary On
Versions: 1 2 3 4 5 6 7 8 9 10 11 12
000
FTUS46 KSTO 301700
TAFRBL
TAF
KRBL 301720Z 3018/3118 VRB05KT P6SM FEW250
     FM302100 15010KT P6SM SCT250
     FM310500 33007KT P6SM FEW250=

USA.gov is the U.S. government's official web portal to all federal, state and local government web resources and services.